This is the latest recevied weather packets stored in our database for station/object GCEMA. If no packets are shown the sender has not sent any weather packets the latest 10 day(s).
| Time | Temp. | Humidity | Pressure | Rain* | Wind** | Luminosity | Snow |
|---|---|---|---|---|---|---|---|
| 1777966435 | 18.89° C | - | 1005.4 hPa | 0 mm | 0 m/s | - | - |
| 1777966254 | 19.44° C | - | 1005.4 hPa | 0 mm | 0 m/s | - | - |
| 1777966074 | 19.44° C | - | 1005.2 hPa | 0 mm | 0 m/s | - | - |
| 1777965895 | 20° C | - | 1004.9 hPa | 0 mm | 0 m/s | - | - |
| 1777965715 | 20° C | - | 1004.7 hPa | 0 mm | 0 m/s | - | - |
| 1777965535 | 20° C | - | 1004.6 hPa | 0 mm | 0 m/s | - | - |
| 1777965413 | 21.11° C | - | 1003.5 hPa | 0 mm | 0 m/s | - | - |
| 1777965353 | 21.11° C | - | 1003.5 hPa | 0 mm | 0 m/s | - | - |
| 1777965174 | 21.11° C | - | 1003 hPa | 0 mm | 0 m/s | - | - |
| 1777964994 | 20.56° C | - | 1002.8 hPa | 0 mm | 0 m/s | - | - |
| 1777964815 | 20.56° C | - | 1002.6 hPa | 0 mm | 0 m/s | - | - |
| 1777964634 | 21.11° C | - | 1002.7 hPa | 0 mm | 0 m/s | - | - |
| 1777964452 | 20.56° C | - | 1002.8 hPa | 0 mm | 0 m/s | - | - |
| 1777964272 | 20.56° C | - | 1002.9 hPa | 0 mm | 0 m/s | - | - |
| 1777964092 | 20.56° C | - | 1002.8 hPa | 0 mm | 0 m/s | - | - |
| 1777963987 | 20.56° C | - | 1002.9 hPa | 0 mm | 0 m/s | - | - |
| 1777963913 | 20.56° C | - | 1002.9 hPa | 0 mm | 0 m/s | - | - |
| 1777963733 | 21.11° C | - | 1002.9 hPa | 0 mm | 0 m/s | - | - |
| 1777963551 | 20.56° C | - | 1002.9 hPa | 0 mm | 0 m/s | - | - |
| 1777963371 | 21.11° C | - | 1002.8 hPa | 0 mm | 0 m/s | - | - |
| 1777963192 | 21.67° C | - | 1002.9 hPa | 0 mm | 0 m/s | - | - |
| 1777963012 | 21.67° C | - | 1002.8 hPa | 0 mm | 0 m/s | - | - |
| 1777962833 | 21.11° C | - | 1002.8 hPa | 0 mm | 0 m/s | - | - |
| 1777962650 | 21.11° C | - | 1002.9 hPa | 0 mm | 0 m/s | - | - |
| 1777962470 | 21.11° C | - | 1002.8 hPa | 0 mm | 0 m/s | - | - |
* Rain latest hour (hover to see other rain measurements)
** Current wind speed in m/s (hover to see current wind gust speed)